Weather History for Bloomington, IN

Change the Weather History Date:

Thursday, September 1, 2011

  Actual Average Record
Temperature  
Mean Temperature 83 °F 71 °F  
Max Temperature 97 °F 83 °F 97 °F (2011)
Min Temperature 68 °F 59 °F 51 °F (1996)
Degree Days  
Heating Degree Days 0 0  
Month to date heating degree days 0 0  
Since 1 July heating degree days 0 7  
Cooling Degree Days 18 6  
Month to date cooling degree days 18 6  
Year to date cooling degree days 1096 823  
Growing Degree Days 32 (Base 50)    
Moisture  
Dew Point 65 °F    
Average Humidity 61    
Maximum Humidity 87    
Minimum Humidity 35    
Precipitation  
Precipitation 0.00 in 0.11 in 1.72 in (2003)
Month to date precipitation 0.00 0.11  
Year to date precipitation 38.62 33.30  
Sea Level Pressure  
Sea Level Pressure 30.01 in    
Wind  
Wind Speed 5 mph (SW)    
Max Wind Speed 15 mph    
Max Gust Speed 20 mph    
Visibility 10 miles    
Events      
T = Trace of Precipitation, MM = Missing Value Source: NWS Daily Summary

Daily Weather History Graph

Daily Weather History Graph

Search for Another Location

Airport:

Trip Planner

Search our weather history database for the weather conditions in past years. The results will help you decide how hot, cold, wet, or windy it might be!

Date:

Astronomy

Sep. 01, 2011 Rise Set
Actual Time 7:14 AM EDT 8:17 PM EDT
Civil Twilight 6:47 AM EDT 8:44 PM EDT
Nautical Twilight 6:14 AM EDT 9:17 PM EDT
Astronomical Twilight 5:40 AM EDT 9:51 PM EDT
Moon 11:31 AM EDT (9/1) 10:10 PM EDT (9/1)
Length of Visible Light 13h 57m
Length of Day
13h 02m
Waxing Crescent, 17% of the Moon is Illuminated
Sep 1
Waxing Crescent
Sep 4
First Quarter
Sep 12
Full
Sep 20
Last Quarter
Sep 27
New

Hourly Weather History & Observations

Time (EDT) Temp. Heat Index Dew Point Humidity Pressure Visibility Wind Dir Wind Speed Gust Speed Precip Events Conditions
12:53 AM 77.0 °F - 64.0 °F 64% 30.02 in 10.0 mi South 4.6 mph - N/A   Clear
2:53 AM 70.0 °F - 64.0 °F 81% 30.01 in 10.0 mi SSE 3.5 mph - N/A   Clear
3:53 AM 69.1 °F - 64.0 °F 84% 30.02 in 10.0 mi Calm Calm - N/A   Clear
4:53 AM 68.0 °F - 64.9 °F 90% 30.01 in 10.0 mi Calm Calm - N/A   Clear
6:53 AM 73.9 °F - 64.0 °F 71% 30.03 in 10.0 mi SW 3.5 mph - N/A   Clear
7:53 AM 73.9 °F - 64.0 °F 71% 30.04 in 10.0 mi SW 4.6 mph - N/A   Clear
8:53 AM 78.1 °F - 64.9 °F 64% 30.05 in 10.0 mi SW 5.8 mph - N/A   Scattered Clouds
10:53 AM 86.0 °F 87.3 °F 64.0 °F 48% 30.05 in 10.0 mi WSW 8.1 mph - N/A   Clear
11:53 AM 90.0 °F 91.3 °F 64.0 °F 42% 30.05 in 10.0 mi Variable 6.9 mph - N/A   Clear
12:53 PM 91.9 °F 93.3 °F 64.0 °F 39% 30.04 in 10.0 mi WSW 10.4 mph 16.1 mph N/A   Clear
1:53 PM 93.0 °F 94.2 °F 63.0 °F 37% 30.03 in 10.0 mi Variable 6.9 mph 19.6 mph N/A   Clear
3:53 PM 96.1 °F 98.3 °F 64.0 °F 35% 29.99 in 10.0 mi Variable 6.9 mph - N/A   Clear
5:53 PM 95.0 °F 97.4 °F 64.9 °F 37% 29.96 in 10.0 mi WSW 5.8 mph - N/A   Clear
6:53 PM 91.9 °F 94.1 °F 64.9 °F 41% 29.96 in 10.0 mi WSW 6.9 mph - N/A   Clear
7:53 PM 88.0 °F 90.3 °F 66.0 °F 48% 29.96 in 10.0 mi WSW 3.5 mph - N/A   Clear
8:53 PM 82.0 °F 84.9 °F 68.0 °F 62% 29.96 in 10.0 mi SW 3.5 mph - N/A   Clear
9:53 PM 79.0 °F - 66.9 °F 66% 29.97 in 10.0 mi SW 3.5 mph - N/A   Clear
10:53 PM 72.0 °F - 66.9 °F 84% 29.99 in 10.0 mi Calm Calm - N/A   Clear
11:53 PM 71.1 °F - 66.9 °F 87% 29.99 in 10.0 mi Calm Calm - N/A   Clear